Seattle, WA
on Thursday, February 28, 2013

Thursday
Previous Day Next Day
Daily Summary
 ActualAverageRecord
Temperature
Mean Temperature °F 44°F  
Max Temperature 53°F 51°F 68°F (1968)
Min Temperature 44°F 38°F 24°F (1951)
Degree Days
Heating Degree Days 16 21  
Month to date heating degree days 567 606  
Since 1 July heating degree days 3141 3254  
Cooling Degree Days 0 0  
Month to date cooling degree days 0 0  
Year to date cooling degree days 0 0  
Moisture
Dew Point 46°F   
Average Humidity 90    
Maximum Humidity 96    
Minimum Humidity 83    
Precipitation
Precipitation 0.32 in 0.12 in 1.46 in (1972)
Month to date precipitation 1.58 3.50  
Year to date precipitation 5.74 9.07  
Snow
Snow 0.00 in in 7.00 in (1962)
Month to date snowfall 0.0  
Since 1 July snowfall 0.6  
Snow Depth 0.00 in   
Wind
Wind Speed 8 mph   
Max Wind Speed 15 mph   
Max Gust Speed 20 mph   
Visibility 6 miles   
Events Rain   

Key: T is trace of precipitation, MM is missing value
Source: NWS Daily Summary
Time(PST)TemperatureDew PointHumidity Pressure Visibility Wind DirectionWind SpeedGust SpeedPrecipitationEvents Conditions
12:53 AM 45.0°F 42.1°F 90% 30.27 in 7.0 miles East 5.8 mph - 0.01 in Rain Light Rain
1:53 AM 45.0°F 41.0°F 86% 30.27 in 5.0 miles East 9.2 mph - 0.04 in Rain Light Rain
2:53 AM 44.1°F 41.0°F 89% 30.26 in 7.0 miles SSE 4.6 mph - 0.03 in Rain Light Rain
3:53 AM 44.1°F 39.9°F 85% 30.25 in 10.0 miles East 6.9 mph - 0.03 in Rain Light Rain
4:53 AM 44.1°F 41.0°F 89% 30.24 in 10.0 miles East 5.8 mph - 0.04 in Rain Light Rain
5:53 AM 44.1°F 39.9°F 85% 30.23 in 10.0 miles ENE 8.1 mph - 0.02 in Rain Light Rain
6:53 AM 45.0°F 39.9°F 82% 30.22 in 9.0 miles East 9.2 mph - 0.01 in Rain Light Rain
7:14 AM 44.6°F 39.2°F 81% 30.20 in 10.0 miles East 6.9 mph - 0.00 in Rain Light Rain
7:53 AM 45.0°F 41.0°F 86% 30.22 in 6.0 miles Variable 3.5 mph - 0.01 in Rain Light Rain
8:53 AM 45.0°F 42.1°F 90% 30.23 in 5.0 miles SSE 5.8 mph - 0.02 in Rain Light Rain
9:53 AM 45.0°F 42.1°F 90% 30.23 in 7.0 miles SE 11.5 mph - 0.03 in Rain Light Rain
10:53 AM 46.0°F 44.1°F 93% 30.25 in 7.0 miles SSE 6.9 mph - 0.01 in Rain Light Rain
11:20 AM 46.4°F 44.6°F 93% 30.23 in 10.0 miles South 8.1 mph - 0.00 in   Overcast
11:53 AM 48.0°F 45.0°F 89% 30.26 in 4.0 miles SE 10.4 mph - 0.01 in   Overcast
11:56 AM 48.2°F 44.6°F 87% 30.23 in 6.0 miles SE 11.5 mph - N/A   Overcast
12:19 PM 48.2°F 44.6°F 87% 30.23 in 7.0 miles SE 11.5 mph - N/A   Overcast
12:53 PM 48.9°F 46.9°F 93% 30.26 in 7.0 miles SE 12.7 mph - N/A   Overcast
1:53 PM 51.1°F 48.0°F 89% 30.26 in 5.0 miles SSE 10.4 mph - N/A   Overcast
2:53 PM 51.1°F 48.9°F 92% 30.29 in 1.5 miles SE 6.9 mph - 0.00 in Rain Light Rain
3:18 PM 51.8°F 48.2°F 88% 30.27 in 2.5 miles SSE 6.9 mph - 0.00 in Rain Light Rain
3:33 PM 51.8°F 48.2°F 88% 30.27 in 7.0 miles SSE 8.1 mph - N/A Rain Light Rain
3:53 PM 52.0°F 48.9°F 89% 30.30 in 7.0 miles South 8.1 mph - 0.00 in Rain Light Rain
4:53 PM 51.8°F 50.0°F 94% 30.28 in 3.0 miles South 6.9 mph - N/A Rain Light Rain
4:57 PM 51.8°F 50.0°F 94% 30.28 in 1.5 miles South 5.8 mph - 0.00 in Rain Light Rain
5:36 PM 51.8°F 48.2°F 88% 30.27 in 2.5 miles South 11.5 mph - 0.00 in Rain Light Rain
5:53 PM 53.1°F 50.0°F 89% 30.30 in 2.5 miles South 10.4 mph - 0.00 in   Overcast
6:34 PM 51.8°F 50.0°F 94% 30.27 in 2.5 miles South 11.5 mph - 0.01 in   Overcast
6:53 PM 52.0°F 50.0°F 93% 30.31 in 2.5 miles SSW 11.5 mph - 0.01 in   Overcast
7:13 PM 51.8°F 50.0°F 94% 30.28 in 2.5 miles SSW 12.7 mph - 0.00 in Rain Light Rain
7:19 PM 51.8°F 50.0°F 94% 30.29 in 6.0 miles SSW 12.7 mph - 0.00 in Rain Light Rain
7:51 PM 51.8°F 50.0°F 94% 30.30 in 5.0 miles SSW 10.4 mph - 0.00 in Rain Light Rain
7:53 PM 52.0°F 50.0°F 93% 30.33 in 5.0 miles SSW 11.5 mph - 0.00 in Rain Light Rain
8:26 PM 51.8°F 48.2°F 88% 30.29 in 10.0 miles South 11.5 mph - 0.00 in   Overcast
8:53 PM 52.0°F 48.9°F 89% 30.33 in 10.0 miles SSW 9.2 mph - 0.00 in   Overcast
9:53 PM 52.0°F 48.9°F 89% 30.35 in 10.0 miles SSW 9.2 mph - 0.00 in   Overcast
10:53 PM 52.0°F 48.0°F 86% 30.35 in 10.0 miles South 6.9 mph - 0.02 in Rain Light Rain
11:53 PM 52.0°F 48.9°F 89% 30.34 in 10.0 miles South 10.4 mph - 0.02 in Rain Light Rain
Moon Phase
Feb. 28 Mar. 04 Mar. 11 Mar. 19 Mar. 27
Sunrise:06:50 AM (PST) Moon Rise:09:45 PM (PST)2/28
Sunset:05:53 PM (PST) Moon Set:07:47 AM (PST)2/28

Copyright © 2014 The Weather Underground, Inc.